Bangor, ME

7:54 PM EDT on August 26, 2016 (GMT -0400)
Bangor International

Weather History for KBGR - December, 2012

Change the Weather History Date:

Sunday, December 23, 2012

  Actual Average Record
Temperature  
Mean Temperature 24 °F 22 °F  
Max Temperature 28 °F 31 °F 59 °F (1990)
Min Temperature 20 °F 12 °F -16 °F (1943)
Degree Days  
Heating Degree Days 41 43  
Month to date heating degree days 817 892  
Since 1 July heating degree days 2432 2561  
Cooling Degree Days 0 0  
Month to date cooling degree days 0 0  
Year to date cooling degree days 395 318  
Moisture  
Dew Point 10 °F    
Average Humidity 57    
Maximum Humidity 68    
Minimum Humidity 46    
Precipitation  
Precipitation 0.00 in 0.10 in 0.97 in (2004)
Month to date precipitation 3.06 2.72  
Year to date precipitation 41.77 41.17  
Snow  
Snow 0.00 in 0.50 in 4.80 in (1981)
Month to date snowfall 5.4 10.0  
Since 1 July snowfall 9.4 12.4  
Snow Depth 0.00 in    
Sea Level Pressure  
Sea Level Pressure 29.66 in    
Wind  
Wind Speed 10 mph (West)    
Max Wind Speed 22 mph    
Max Gust Speed 31 mph    
Visibility 10 miles    
Events      
T = Trace of Precipitation, MM = Missing Value Source: NWS Daily Summary

Daily Weather History Graph

Daily Weather History Graph

Search for Another Location

Airport or City:

Trip Planner

Search our weather history database for the weather conditions in past years. The results will help you decide how hot, cold, wet, or windy it might be!

Date:

Astronomy

Dec. 23, 2012 Rise Set
Actual Time 7:10 AM EST 3:58 PM EST
Civil Twilight 6:37 AM EST 4:32 PM EST
Nautical Twilight 5:59 AM EST 5:09 PM EST
Astronomical Twilight 5:24 AM EST 5:45 PM EST
Moon 12:52 PM EST (12/23) 2:44 AM EST (12/23)
Length of Visible Light 9h 55m
Length of Day
8h 47m
Waxing Gibbous, 81% of the Moon is Illuminated
Dec 23
Waxing Gibbous
Dec 28
Full
Jan 4
Last Quarter
Jan 11
New
Jan 18
First Quarter

Hourly Weather History & Observations

Time (EST) Temp. Windchill Dew Point Humidity Pressure Visibility Wind Dir Wind Speed Gust Speed Precip Events Conditions
12:53 AM 24.1 °F 13.1 °F 12.0 °F 60% 29.48 in 10.0 mi WNW 11.5 mph 23.0 mph N/A   Scattered Clouds
1:53 AM 23.0 °F 10.1 °F 10.0 °F 58% 29.51 in 10.0 mi WNW 15.0 mph 25.3 mph N/A   Overcast
2:53 AM 21.9 °F 10.4 °F 8.1 °F 55% 29.52 in 10.0 mi WNW 11.5 mph 24.2 mph N/A   Mostly Cloudy
3:53 AM 21.0 °F 7.1 °F 8.1 °F 57% 29.55 in 10.0 mi WNW 16.1 mph 24.2 mph N/A   Mostly Cloudy
4:53 AM 21.0 °F 9.3 °F 8.1 °F 57% 29.57 in 10.0 mi WNW 11.5 mph 17.3 mph N/A   Overcast
5:53 AM 19.9 °F 7.9 °F 7.0 °F 57% 29.61 in 10.0 mi NW 11.5 mph - N/A   Mostly Cloudy
6:53 AM 19.9 °F 7.9 °F 8.1 °F 60% 29.63 in 10.0 mi West 11.5 mph 19.6 mph N/A   Overcast
7:53 AM 19.9 °F 8.6 °F 7.0 °F 57% 29.65 in 10.0 mi WNW 10.4 mph 18.4 mph N/A   Mostly Cloudy
8:53 AM 21.9 °F 9.2 °F 8.1 °F 55% 29.66 in 10.0 mi West 13.8 mph 24.2 mph N/A   Mostly Cloudy
9:53 AM 23.0 °F 10.1 °F 8.1 °F 53% 29.68 in 10.0 mi WNW 15.0 mph 26.5 mph N/A   Mostly Cloudy
10:53 AM 23.0 °F 13.9 °F 9.0 °F 55% 29.67 in 10.0 mi WNW 8.1 mph 17.3 mph N/A   Mostly Cloudy
11:53 AM 25.0 °F 13.6 °F 9.0 °F 51% 29.66 in 10.0 mi NW 12.7 mph 23.0 mph N/A   Scattered Clouds
12:53 PM 26.6 °F 18.2 °F 10.4 °F 51% 29.64 in 10.0 mi West 8.1 mph 19.6 mph N/A   Scattered Clouds
1:53 PM 28.0 °F 19.3 °F 10.0 °F 47% 29.66 in 10.0 mi West 9.2 mph - N/A   Mostly Cloudy
2:53 PM 28.0 °F 20.0 °F 10.0 °F 47% 29.68 in 10.0 mi West 8.1 mph - N/A   Mostly Cloudy
3:53 PM 26.1 °F 20.5 °F 10.0 °F 51% 29.70 in 10.0 mi West 4.6 mph - N/A   Partly Cloudy
4:53 PM 26.1 °F 21.9 °F 10.9 °F 53% 29.72 in 10.0 mi West 3.5 mph - N/A   Partly Cloudy
5:53 PM 25.0 °F 18.1 °F 12.0 °F 58% 29.74 in 10.0 mi WNW 5.8 mph - N/A   Scattered Clouds
6:53 PM 24.1 °F - 12.0 °F 60% 29.75 in 10.0 mi Calm Calm - N/A   Scattered Clouds
7:53 PM 24.1 °F 19.7 °F 12.9 °F 62% 29.76 in 10.0 mi SW 3.5 mph - N/A   Overcast
8:53 PM 25.0 °F - 12.9 °F 60% 29.76 in 10.0 mi Calm Calm - N/A   Overcast
9:53 PM 25.0 °F - 14.0 °F 63% 29.76 in 10.0 mi Calm Calm - N/A   Mostly Cloudy
10:53 PM 24.1 °F 19.7 °F 16.0 °F 71% 29.76 in 10.0 mi South 3.5 mph - N/A   Overcast
11:53 PM 24.1 °F - 18.0 °F 77% 29.75 in 10.0 mi Calm Calm - N/A   Overcast